Torna al catalogo

STARLINK-35465

AttivoComunicazioniVLEO
NORAD 65871·PAYLOAD·🇺🇸 United States

Lanciato Oct 3, 2025 da Vandenberg Space Force Base

Loading…

Prossimi Passaggi (prossime 24 ore)

TLE

AggiornatoSource: CelesTrak SupGP

Epoca: Sep 14, 2026, 15:25 UTC

1 65871C 25223T   26257.64284722  .00036907  00000+0  10901-2 0  2572
2 65871  53.1569 134.8551 0001123 106.3009  69.5311 15.34383078    19

Traccia STARLINK-35465 in tempo reale con AllMySat

Download on the App Store